Theta_e
307 309 309 310 312 313 316 316 317 318 313 314 317 317 326 326 328 324 321 319 322 323 328 328 328 329 329 329 328 327 328 328 329 329 328 327 327 327 328 323 319 318 316 311
305 306 307 310 311 312 314 315 315 312 313 313 313 314 313 324 326 323 321 318 318 317 322 324 326 327 328 328 328 329 329 329 329 329 328 327 327 326 322 318 317 314 307 305
306 306 306 310 310 312 313 315 313 314 311 312 312 316 318 322 324 322 320 318 314 317 317 321 322 325 324 326 327 327 328 329 329 329 328 327 326 321 317 316 313 307 304 300
306 306 306 307 310 311 313 312 313 312 314 318 312 318 313 313 323 321 319 317 316 317 317 319 321 322 321 325 327 327 327 327 327 328 328 327 326 320 316 313 308 304 300 298
305 307 306 308 309 309 312 313 314 313 313 313 313 317 317 317 316 322 319 317 313 316 317 314 320 319 320 323 325 326 326 327 327 325 321 322 317 315 314 309 304 300 298 297
304 305 306 307 308 309 310 312 313 312 314 316 315 316 316 321 318 318 319 316 312 312 312 314 315 315 319 321 323 323 323 322 321 321 320 318 319 313 309 305 299 298 297 297
303 303 305 308 309 309 311 313 314 315 316 315 315 316 314 319 318 318 316 312 308 309 311 312 316 314 318 319 320 319 320 321 320 317 315 316 313 304 302 300 298 297 297 296
300 300 306 308 308 308 311 313 315 317 317 316 315 317 317 315 316 316 315 313 308 308 310 310 311 315 317 317 317 318 318 321 317 318 315 304 303 300 299 298 297 297 296 296
303 301 303 306 306 308 308 310 310 313 314 319 318 317 316 312 316 316 315 309 307 307 309 309 309 315 317 318 318 319 318 318 319 315 309 300 298 298 297 297 296 296 296 295
305 304 303 307 308 309 307 310 309 312 317 317 317 318 317 312 315 315 313 306 306 306 307 308 314 309 313 313 311 314 316 315 316 308 302 300 298 297 296 296 296 296 295 294
303 304 303 306 309 311 308 308 310 312 314 317 317 316 308 311 315 313 311 307 305 305 307 308 311 312 312 310 314 314 312 312 304 299 299 298 297 296 296 296 295 295 294 294
302 306 298 303 305 308 309 308 309 307 308 313 313 314 303 304 305 313 309 306 303 304 306 307 308 311 311 315 312 308 309 304 300 298 297 297 296 296 295 295 295 294 293 293
303 306 292 296 301 307 309 308 310 310 310 312 314 313 304 304 309 311 309 304 303 303 304 306 308 309 309 311 312 305 298 297 299 298 296 296 296 296 295 295 294 293 293 292
302 306 300 299 306 305 306 306 307 310 307 310 312 312 307 306 308 309 308 305 307 307 307 307 304 305 309 312 308 300 298 299 301 296 295 295 295 295 294 294 293 292 292 292
298 302 304 301 304 306 306 306 308 310 309 311 311 313 306 306 307 306 308 306 305 304 305 306 305 305 306 304 303 298 299 300 296 295 295 295 295 294 294 293 293 292 292 291
297 298 302 300 301 304 306 306 307 307 308 309 310 311 305 304 306 305 304 302 301 302 304 305 304 305 304 303 301 299 300 296 295 295 295 295 294 294 293 293 293 292 292 291
297 298 301 300 302 304 301 301 305 305 307 309 310 309 304 304 305 305 304 303 301 301 301 301 301 302 301 300 299 299 297 296 296 295 295 294 294 293 293 293 292 292 291 291
296 297 301 302 299 300 300 300 301 302 303 304 308 307 305 304 305 306 305 305 303 301 300 300 301 301 300 300 298 298 297 296 295 295 297 294 293 293 293 293 292 291 291 291
296 298 301 295 291 297 305 300 302 307 307 303 306 303 301 303 303 303 305 305 305 304 303 302 301 301 300 299 298 297 296 295 295 296 294 294 294 294 294 293 292 291 291 290
296 298 296 291 296 303 303 299 298 299 301 296 300 303 300 300 304 302 303 304 304 303 303 302 301 301 300 298 298 297 296 296 297 297 294 294 295 295 293 292 292 291 291 290
286 286 298 296 302 298 300 299 300 299 302 296 298 302 301 302 302 300 300 302 302 302 302 301 301 301 300 299 297 297 296 297 297 295 295 296 295 294 293 292 292 291 291 290
292 295 294 289 297 302 297 301 306 302 296 295 299 301 300 301 301 302 302 302 301 302 301 300 300 300 299 298 297 296 298 299 295 295 296 296 295 295 293 292 292 292 291 290
288 294 294 295 297 297 297 301 303 302 298 296 297 301 301 301 301 301 301 301 301 301 301 301 301 300 299 298 298 297 298 296 296 297 296 296 295 294 293 292 292 291 290 290
289 291 290 292 293 294 296 296 298 299 300 298 297 297 302 301 301 301 300 300 301 301 300 301 300 300 300 299 298 298 296 296 297 297 296 295 294 293 292 292 291 291 290 290
290 289 288 289 291 293 295 294 295 297 298 297 297 297 299 301 301 301 300 300 300 300 301 301 302 302 301 300 298 297 296 296 297 297 295 294 293 292 292 292 291 291 290 289
289 289 290 290 292 292 294 294 294 295 296 297 297 296 297 301 301 300 300 301 301 301 301 301 300 300 299 298 298 297 297 297 297 294 294 293 292 292 292 291 291 290 290 290
Wind_Speed
10 3 6 11 12 15 9 6 10 7 5 3 8 12 15 24 23 23 23 26 35 34 34 33 31 34 33 32 33 33 31 28 26 24 21 19 17 13 16 14 10 5 5 6
4 10 15 9 12 13 16 14 8 3 0 5 4 15 11 17 23 30 30 26 30 32 32 31 31 32 31 31 30 30 27 26 25 23 22 21 18 19 15 12 8 7 8 6
7 14 9 10 12 13 13 13 6 1 2 2 3 6 6 14 14 23 23 25 26 34 32 32 30 30 30 28 29 28 27 27 25 24 24 23 22 19 16 12 10 10 7 3
8 8 11 13 10 6 13 10 14 5 3 3 2 4 2 13 10 15 24 28 35 34 32 30 30 28 26 26 26 29 30 29 27 27 26 27 24 20 17 13 12 9 6 3
7 11 12 14 15 10 7 7 11 8 9 4 4 3 1 8 9 10 20 30 32 37 37 35 33 28 24 25 25 27 31 31 30 29 27 27 22 18 16 16 12 8 5 2
15 16 5 11 5 8 5 3 5 5 3 7 11 6 5 6 10 8 15 26 33 37 35 35 30 27 26 24 26 27 28 28 28 27 26 20 17 19 19 15 11 8 5 3
13 6 8 9 3 5 2 4 4 6 6 5 16 8 13 9 7 13 10 23 31 39 39 35 34 29 28 27 27 26 27 28 28 24 23 21 19 19 15 12 9 7 5 2
4 8 2 2 5 6 7 4 5 3 4 4 10 8 5 3 5 16 27 26 32 37 37 36 34 34 27 31 29 26 24 23 24 19 20 19 21 15 12 10 9 6 4 2
4 6 4 4 7 1 4 5 1 6 3 3 5 2 3 1 5 6 23 28 29 32 36 34 34 31 32 28 30 27 23 22 19 21 21 19 17 13 11 11 8 5 4 3
4 8 5 1 5 5 7 2 2 1 4 1 2 3 1 4 6 7 16 24 26 30 32 33 35 33 36 37 34 32 29 25 24 25 20 16 15 13 12 9 7 6 4 2
7 6 6 3 1 4 2 4 4 4 3 2 3 2 2 6 9 15 16 25 28 31 34 34 34 30 29 29 28 27 27 27 27 24 22 20 16 14 10 9 8 6 4 2
4 3 3 7 5 7 4 5 6 2 3 3 3 2 2 4 1 8 16 22 22 28 32 31 28 32 34 32 30 28 28 28 27 23 21 19 17 15 12 10 8 6 4 3
4 2 3 9 5 3 1 7 5 4 1 3 0 2 1 4 4 15 22 23 27 28 29 30 32 35 33 30 27 29 29 27 23 22 20 18 15 14 12 10 8 7 5 4
10 3 3 4 3 2 4 8 8 3 1 4 2 2 3 3 6 10 19 24 28 31 34 33 34 35 32 31 32 31 28 25 21 22 20 17 15 12 11 10 9 6 5 6
4 3 3 5 7 5 5 5 5 2 3 2 3 4 5 1 4 8 20 24 24 28 31 35 34 28 29 31 33 31 28 25 24 22 18 16 14 13 11 10 8 7 7 8
7 4 4 4 6 3 7 9 7 6 3 6 6 1 5 3 7 11 21 25 26 30 34 33 33 33 33 34 33 31 28 27 23 20 18 16 14 12 11 9 8 9 9 9
3 4 4 4 5 5 7 8 11 4 5 6 7 5 5 0 4 12 19 25 27 30 32 34 35 34 33 34 35 34 29 25 23 20 18 14 14 12 10 9 10 10 10 10
4 3 2 3 4 1 6 2 3 6 7 8 5 5 7 8 7 9 16 22 24 27 30 31 32 32 32 33 33 30 29 26 23 20 15 16 14 10 10 11 12 12 12 12
6 3 3 1 2 6 4 3 2 1 4 4 6 6 5 10 7 6 15 17 18 20 22 24 26 28 29 33 34 31 28 25 23 20 18 14 11 10 11 12 12 13 14 13
4 3 1 4 0 2 3 3 5 2 3 6 8 3 7 12 3 3 10 16 16 17 19 22 22 24 28 33 32 30 29 27 22 19 15 12 11 12 13 12 14 14 14 13
1 2 4 5 3 7 4 4 5 5 4 10 8 6 6 2 1 3 2 12 14 15 17 18 20 22 25 31 33 33 32 27 19 16 15 14 13 13 12 14 15 14 15 16
4 4 4 1 1 4 2 0 0 2 5 7 5 7 5 4 1 2 1 4 11 13 17 18 19 21 25 31 33 32 26 20 18 17 16 16 14 14 15 15 16 18 19 20
3 5 2 6 5 4 4 6 5 5 5 4 3 1 2 3 1 2 2 3 8 12 14 16 17 19 23 27 28 29 22 21 18 18 17 15 15 15 16 18 19 21 20 22
5 6 3 3 3 8 15 11 20 16 10 7 4 2 5 6 7 3 2 5 10 13 16 17 19 20 24 25 26 24 20 19 19 17 16 15 16 18 20 20 19 21 21 22
6 7 4 5 11 21 17 12 20 13 16 12 6 3 6 8 7 5 4 6 9 12 16 18 18 20 21 23 23 23 22 20 18 16 15 18 19 20 19 19 20 22 23 24
11 7 5 6 9 7 6 5 6 12 12 10 10 5 6 8 7 5 5 7 10 13 16 18 18 18 19 20 20 20 19 19 16 15 17 16 17 17 18 21 22 24 25 26
Wind_Direction
287 230 244 240 232 240 284 223 272 207 85 80 304 310 203 191 176 164 162 165 169 182 177 180 179 181 185 185 186 194 193 198 197 195 196 199 196 207 177 173 172 175 186 173
310 258 249 259 280 247 238 255 243 275 174 119 324 300 314 211 186 172 165 169 168 178 177 178 180 184 187 188 188 191 194 196 198 202 206 199 186 177 176 177 171 168 166 169
260 258 288 203 283 253 241 242 214 308 229 88 307 254 297 236 188 171 171 167 168 178 177 176 182 186 187 188 191 190 193 193 200 202 199 191 180 174 177 179 170 166 164 178
265 312 272 254 256 259 264 219 221 199 179 237 168 279 258 300 197 175 167 171 178 182 185 181 185 185 187 189 189 196 197 203 205 204 199 195 183 178 171 168 169 170 173 178
257 306 317 310 249 230 254 188 217 191 186 175 156 254 164 184 282 205 179 178 175 182 188 184 185 189 185 187 190 194 196 195 202 196 189 180 173 172 167 166 173 174 177 175
260 263 217 241 286 247 270 232 275 198 203 233 188 170 200 191 217 216 189 175 169 174 184 186 181 184 183 182 187 189 189 187 183 187 182 176 174 173 168 168 175 174 181 190
317 263 235 211 252 285 147 224 227 215 188 227 165 179 244 210 156 192 198 169 161 171 183 183 180 180 178 180 179 176 180 178 180 179 172 170 162 174 166 169 177 179 175 155
260 321 267 217 208 211 201 221 256 220 180 184 152 208 266 171 165 147 184 184 170 176 182 180 179 178 178 177 172 168 174 183 173 177 162 166 172 170 174 174 184 170 170 203
307 273 316 240 195 218 261 213 123 310 257 172 169 275 280 134 209 222 180 166 173 179 188 184 177 165 172 179 172 168 168 166 168 163 155 175 176 173 180 184 167 171 196 220
299 299 273 316 27 225 226 195 54 77 292 87 55 337 256 206 223 126 160 164 169 175 185 186 169 183 179 177 175 172 177 183 176 161 166 177 184 179 186 173 175 196 207 230
264 220 281 343 331 306 244 249 255 160 250 330 121 253 200 197 197 175 170 169 167 173 181 179 174 185 180 179 174 180 177 175 164 174 173 183 182 186 182 183 197 208 215 234
254 273 265 227 264 151 256 255 210 151 272 260 248 214 296 264 161 159 156 149 150 172 183 188 177 182 181 184 180 179 177 172 175 175 180 179 187 182 184 194 206 214 222 246
342 261 4 339 357 359 218 338 267 288 84 235 300 312 356 279 85 153 149 150 160 170 177 189 183 188 181 182 184 185 178 178 179 184 185 186 189 191 193 202 214 219 230 255
303 296 159 192 206 192 299 318 323 254 82 314 265 346 348 17 95 130 149 164 181 179 183 184 189 191 187 189 187 183 182 186 188 188 188 188 192 195 202 211 218 225 242 260
17 294 327 263 259 230 251 262 297 290 236 158 302 24 330 292 170 132 150 156 165 176 187 192 200 197 194 191 188 186 187 189 189 190 188 192 197 204 212 217 227 245 259 269
338 296 311 293 280 274 273 258 244 239 244 250 285 190 286 338 137 140 151 159 167 181 192 198 200 202 199 194 190 187 192 190 189 192 193 197 204 212 219 232 248 256 262 271
317 316 318 281 338 331 296 224 235 236 210 180 225 190 178 256 183 183 173 176 177 188 197 201 205 207 202 197 194 191 190 190 193 194 196 204 213 218 230 246 256 262 266 271
293 310 269 292 351 311 237 205 254 222 257 261 276 177 179 182 205 215 208 199 198 198 202 207 208 210 207 200 195 193 193 194 194 196 205 211 214 226 247 259 263 265 268 271
200 287 292 129 251 287 315 10 12 310 299 356 248 149 156 145 152 249 220 221 221 217 217 215 213 210 204 199 195 195 194 195 198 203 208 212 222 242 258 264 267 270 271 268
231 249 221 344 119 270 265 319 333 294 317 357 342 198 154 154 145 245 218 213 215 219 219 213 212 208 204 199 196 195 196 199 204 210 210 219 236 251 263 270 274 272 276 279
322 324 235 261 269 288 263 299 325 81 266 339 347 336 165 128 96 105 117 193 204 210 209 209 210 208 201 197 196 199 201 205 204 205 215 231 243 257 273 275 277 282 285 281
192 165 219 74 321 287 195 188 85 229 328 330 357 37 104 99 3 347 10 182 192 193 195 203 202 201 199 199 201 203 206 203 203 213 228 239 250 269 277 282 288 287 279 274
297 195 218 183 225 244 227 261 268 265 290 335 346 38 152 213 8 360 278 218 200 199 196 197 198 197 198 201 204 207 212 205 212 225 236 248 260 275 286 284 281 275 273 274
244 195 215 33 281 241 267 266 257 255 255 292 319 297 210 216 224 264 249 201 189 190 192 192 192 193 193 196 203 209 209 212 222 232 246 259 275 279 272 274 278 279 279 285
214 153 198 261 277 273 288 271 255 261 249 247 252 304 206 208 211 229 224 198 190 190 186 188 188 188 190 196 198 201 205 216 228 239 255 267 268 270 274 282 289 289 291 292
188 203 175 223 249 247 288 335 345 233 240 239 240 262 210 201 204 215 201 184 185 186 187 186 186 188 190 194 198 202 207 219 230 244 259 268 271 276 286 291 293 293 293 293